Flag for U.S.A. Weather past 2 weeks in Avalon (Santa Catalina Island), California, U.S.A.

Now
59 °F

Overcast.


Feels Like: 58 °F
Forecast: 62 / 69 °F
Wind: 7 mph from North

Location: Catalina Airport

Current Time: Jan 30, 2015 at 3:10:06 AM

Latest Report: Jan 30, 2015 at 1:51 AM


Visibility: 10 mi

Pressure: 29.96 "Hg

Humidity: 56%

Dew point: 43 °F

Location of Avalon (Santa Catalina Island)Location

Historic Weather in Avalon (Santa Catalina Island) — Graph

°F

Avalon (Santa Catalina Island) temperature yesterday

Maximum temperature yesterday: 66 °F (at 9:51 AM)
Minimum temperature yesterday: 59 °F (at 5:51 PM)
Average temperature yesterday: 63 °F

Past Weeks' High & Low Weather Summary

 TemperatureHumidityPressure
High74 °F (Jan 25, 11:51 AM)97% (Jan 20, 3:51 PM)30.24 "Hg (Jan 20, 3:51 PM)
Low49 °F (Jan 21, 5:51 AM)10% (Jan 23, 3:51 PM)29.93 "Hg (Jan 20, 1:51 PM)
Average62 °F39%30.09 "Hg
* Reported Jan 15 1:51 AM — Jan 30 1:51 AM, Avalon (Santa Catalina Island), Weather by CustomWeather, © 2014

Note: Actual official high and low records may vary slightly from our data, if they occured in-between our weather recording intervals... More about our weather records

Advertising

Avalon (Santa Catalina Island) weather history for previous 24 hours

 ConditionsComfort  
Time TempWeatherWind HumidityBarometerVisibility
1:51 AM
Jan 30
59 °FOvercast.7 mph56%29.96 "Hg10 mi
12:51 AM56 °FFog.8 mph90%29.98 "Hg5 mi
11:51 PM
Jan 29
61 °FOvercast.7 mph48%29.99 "Hg10 mi
10:51 PM61 °FOvercast.5 mph48%30.01 "Hg10 mi
9:51 PM61 °FOvercast.8 mph46%30.01 "Hg10 mi
8:51 PM61 °FMostly cloudy.6 mph46%30.02 "Hg10 mi
7:51 PM61 °FOvercast.No wind48%30.02 "Hg10 mi
6:51 PM62 °FOvercast.6 mph44%30.01 "Hg10 mi
5:51 PM59 °FPassing clouds.6 mph64%30.00 "Hg10 mi
4:51 PM63 °FPartly sunny.5 mph45%29.98 "Hg10 mi
3:51 PM65 °FSunny.3 mph39%29.98 "Hg10 mi
2:51 PM64 °FPartly sunny.7 mph43%29.98 "Hg10 mi
1:51 PM64 °FScattered clouds.6 mph52%29.98 "Hg10 mi
12:51 PM65 °FSunny.3 mph45%30.00 "Hg10 mi
11:51 AM65 °FPassing clouds.3 mph45%30.02 "Hg10 mi
10:51 AM65 °FSunny.No wind45%30.05 "Hg10 mi
9:51 AM66 °FScattered clouds.No wind45%30.05 "Hg10 mi
8:51 AM65 °FPartly sunny.3 mph40%30.04 "Hg10 mi
7:51 AM62 °FSunny.6 mph46%30.03 "Hg10 mi
6:51 AM61 °FSunny.3 mph48%30.03 "Hg10 mi
5:51 AM63 °FClear.6 mph43%30.01 "Hg10 mi
4:51 AM64 °FPassing clouds.5 mph43%30.01 "Hg10 mi
3:51 AM62 °FClear.6 mph48%30.01 "Hg10 mi
Weather by CustomWeather, © 2014

See weather overviewHow to use our weather pages